Regional Weather Roundup
Issued by NWS

Home | Current Version | Previous Version | Graphics & Text | Print | Product List | Glossary Off
Versions: 1 2 3 4 5 6 7 8 9 10 11 12 13 14 15 16 17 18 19 20 21 22 23 24 25 26 27 28 29 30 31 32 33 34 35 36 37 38 39 40 41 42 43 44 45 46 47 48 49 50

000
ASUS43 KDMX 161507
RWRIA

WEATHER ROUNDUP FOR IOWA
NATIONAL WEATHER SERVICE DES MOINES IA
1000 AM CDT TUE SEP 16 2014

NOTE: "FAIR" INDICATES FEW OR NO CLOUDS BELOW 12,000 FEET WITH NO
SIGNIFICANT WEATHER AND/OR OBSTRUCTIONS TO VISIBILITY.

* - THESE STATIONS ARE NOT NWS STATIONS...THUS NOT UNDER NWS
QUALITY CONTROL.  THEY ALSO DO NOT REPORT WEATHER SUCH
AS PRECIPITATION OR FOG.

IAZ001>003-012>014-020>022-031>034-043>046-161600-
   NORTHWEST IOWA

CITY           SKY/WX    TMP DP  RH WIND       PRES   REMARKS
CARROLL *      SUNNY     57  48  72 SW5       30.22F
CHEROKEE *     SUNNY     54  50  87 SW8       30.21S
DENISON *      SUNNY     54  48  82 S7        30.21S
LE MARS *      SUNNY     54  48  82 S7        30.20F
ORANGE CITY *  SUNNY     54  45  71 SW10      30.19F
SHELDON *      SUNNY     52  46  82 S9        30.19S
SIOUX CITY     SUNNY     53  48  83 S5        30.21F
SPENCER        SUNNY     57  45  64 S9        30.20F
STORM LAKE *   SUNNY     55  54  94 SW8       30.21S
$$

IAZ055>058-069>071-079>083-090>094-161600-
   SOUTHWEST IOWA

CITY           SKY/WX    TMP DP  RH WIND       PRES   REMARKS
ATLANTIC *     SUNNY     52  52 100 S3        30.23F
AUDUBON *      SUNNY     57  55  94 S7        30.23F
CLARINDA *     SUNNY     52  52 100 CALM      30.26S
COUNCIL BLFS * SUNNY     55  50  82 S7        30.22S
CRESTON *      SUNNY     55  48  76 SE7       30.25S
HARLAN  *        N/A     52  50  93 S7        30.26F
LAMONI         SUNNY     57  49  74 E3        30.25S
SHENANDOAH *   SUNNY     55  50  82 SE6       30.25S
$$

IAZ047>049-059>061-072>074-084-161600-
   CENTRAL IOWA

CITY           SKY/WX    TMP DP  RH WIND       PRES   REMARKS
AMES           SUNNY     55  49  80 VRB3      30.24S
ANKENY *       SUNNY     55  48  76 CALM      30.24F
CHARITON *     SUNNY     55  48  76 CALM      30.25S
DES MOINES     SUNNY     56  49  77 VRB3      30.24F
GRINNELL*      SUNNY     57  47  69 S5        30.25S
KNOXVILLE *    SUNNY     55  50  82 CALM      30.24S
MARSHALLTOWN   SUNNY     56  48  74 SW5       30.23F
PELLA *        SUNNY     59  50  72 CALM      30.26S
PERRY *          N/A     57  48  72 SW3       30.23F
$$

IAZ004>006-015-016-023>025-035-036-161600-
   NORTH CENTRAL IOWA

CITY           SKY/WX    TMP DP  RH WIND       PRES   REMARKS
ALGONA *       SUNNY     55  46  71 SW9       30.22S
CLARION *        N/A     55  46  71 SW6       30.23S
ESTHERVILLE    SUNNY     55  44  66 SW8       30.20S
FORT DODGE *   SUNNY     55  46  71 SW7       30.23S
MASON CITY     SUNNY     55  44  66 SW9       30.24R
FOREST CITY *  SUNNY     55  45  67 SW6       30.21F
IOWA FALLS *     N/A     56  45  64 SW5       30.24S
$$

IAZ007>011-017>019-026>030-037>042-050>054-066-161600-
   NORTHEAST IOWA

CITY           SKY/WX    TMP DP  RH WIND       PRES   REMARKS
CEDAR RAPIDS   SUNNY     55  47  74 CALM      30.24S
CHARLES CITY * SUNNY     54  46  76 SW6       30.24R
CLINTON *      SUNNY     54  45  71 CALM      30.27S
DECORAH *      SUNNY     54  45  71 W5        30.22S
DUBUQUE        SUNNY     56  43  61 SW3       30.24S
MONTICELLO *   SUNNY     55  46  71 CALM      30.24S
OELWEIN *      SUNNY     55  45  67 SW6       30.24S
WATERLOO       SUNNY     55  45  68 SW6       30.23S
$$

IAZ064-065-067-068-078-161600-
   EAST CENTRAL IOWA

CITY           SKY/WX    TMP DP  RH WIND       PRES   REMARKS
DAVENPORT      SUNNY     57  44  62 E5        30.25S
IOWA CITY      SUNNY     56  49  77 CALM      30.26S
MT. PLEASANT * SUNNY     57  46  67 CALM      30.25S
MUSCATINE *    SUNNY     55  48  76 CALM      30.26S
QUAD CITIES    SUNNY     56  45  66 E5        30.25S
$$

IAZ062-063-075>077-085>089-095>099-161600-
   SOUTHEAST IOWA

CITY           SKY/WX    TMP DP  RH WIND       PRES   REMARKS
BURLINGTON     SUNNY     58  48  69 E5        30.24F
FAIRFIELD *    SUNNY     55  48  76 CALM      30.26R
FORT MADISON * SUNNY     59  48  67 CALM      30.26S
KEOKUK *       SUNNY     57  48  72 E5        30.25S
OSKALOOSA *      N/A     54  49  82 CALM      30.26S
CENTERVILLE *  SUNNY     55  50  82 CALM      30.27S
OTTUMWA        SUNNY     55  49  80 CALM      30.24S
WASHINGTON *   SUNNY     57  50  77 CALM      30.25S
$$

ABBREVIATIONS USED IN REMARKS
   TC - TEMPERATURES IN CELSIUS
  WCI - WIND CHILL INDEX
   HX - HEAT INDEX
  VSB - VISIBILITY
$$




USA.gov is the U.S. government's official web portal to all federal, state and local government web resources and services.